Time,TemperatureF,DewpointF,PressureIn,WindDirection,WindDirectionDegrees,WindSpeedMPH,WindSpeedGustMPH,Humidity,HourlyPrecipIn,Conditions,Clouds,dailyrainin,SoftwareType,DateUTC
2013-11-09 00:02:00,45.0,35.0,29.64,ESE,112,14.1,14.1,68,0.00,,,0.00,WUHU21623XXSP,2013-11-09 06:02:00,
2013-11-09 00:07:00,45.0,35.0,29.64,SE,135,12.3,14.1,68,0.00,,,0.00,WUHU21623XXSP,2013-11-09 06:07:00,
2013-11-09 00:12:00,45.1,34.8,29.63,ESE,112,9.6,12.3,67,0.00,,,0.00,WUHU21623XXSP,2013-11-09 06:12:00,
2013-11-09 00:18:00,45.1,34.8,29.63,ESE,112,19.5,19.5,67,0.00,,,0.00,WUHU21623XXSP,2013-11-09 06:18:00,
2013-11-09 00:23:00,45.1,34.8,29.62,ESE,112,15.7,19.5,67,0.00,,,0.00,WUHU21623XXSP,2013-11-09 06:23:00,
2013-11-09 00:28:00,45.1,34.8,29.61,ESE,112,9.2,15.7,67,0.00,,,0.00,WUHU21623XXSP,2013-11-09 06:28:00,
2013-11-09 00:33:00,45.3,35.0,29.61,SE,135,8.3,19.7,67,0.00,,,0.00,WUHU21623XXSP,2013-11-09 06:33:00,
2013-11-09 00:38:00,45.5,34.8,29.61,SE,135,8.3,19.7,66,0.00,,,0.00,WUHU21623XXSP,2013-11-09 06:38:00,
2013-11-09 00:43:00,45.7,34.9,29.61,ESE,112,11.6,11.6,66,0.00,,,0.00,WUHU21623XXSP,2013-11-09 06:43:00,
2013-11-09 00:48:00,45.7,35.3,29.61,SE,135,10.5,11.6,67,0.00,,,0.00,WUHU21623XXSP,2013-11-09 06:48:00,
2013-11-09 00:53:00,45.7,35.3,29.61,East,90,9.4,11.6,67,0.00,,,0.00,WUHU21623XXSP,2013-11-09 06:53:00,
2013-11-09 00:58:00,45.5,35.5,29.60,East,90,3.8,9.4,68,0.00,,,0.00,WUHU21623XXSP,2013-11-09 06:58:00,
2013-11-09 01:03:00,45.5,35.5,29.60,ESE,112,18.1,18.1,68,0.00,,,0.00,WUHU21623XXSP,2013-11-09 07:03:00,
2013-11-09 01:08:00,45.5,35.5,29.60,East,90,8.1,18.1,68,0.00,,,0.00,WUHU21623XXSP,2013-11-09 07:08:00,
2013-11-09 01:13:00,45.5,35.5,29.59,ESE,112,8.3,11.2,68,0.00,,,0.00,WUHU21623XXSP,2013-11-09 07:13:00,
2013-11-09 01:18:00,45.5,35.5,29.59,ESE,112,6.3,11.2,68,0.00,,,0.00,WUHU21623XXSP,2013-11-09 07:18:00,
2013-11-09 01:23:00,45.5,35.5,29.59,ESE,112,7.4,9.6,68,0.00,,,0.00,WUHU21623XXSP,2013-11-09 07:23:00,
2013-11-09 01:28:00,45.7,35.7,29.59,ESE,112,2.5,11.0,68,0.00,,,0.00,WUHU21623XXSP,2013-11-09 07:28:00,
2013-11-09 01:33:00,46.0,35.7,29.58,East,90,10.1,11.0,67,0.00,,,0.00,WUHU21623XXSP,2013-11-09 07:33:00,
2013-11-09 01:38:00,46.0,35.7,29.58,SSE,157,9.8,10.1,67,0.00,,,0.00,WUHU21623XXSP,2013-11-09 07:38:00,
2013-11-09 01:43:00,46.2,35.9,29.58,ESE,112,11.0,16.1,67,0.00,,,0.00,WUHU21623XXSP,2013-11-09 07:43:00,
2013-11-09 01:48:00,46.2,35.9,29.58,ESE,112,11.9,16.1,67,0.00,,,0.00,WUHU21623XXSP,2013-11-09 07:48:00,
2013-11-09 01:53:00,46.4,35.6,29.58,NE,45,5.1,13.6,66,0.00,,,0.00,WUHU21623XXSP,2013-11-09 07:53:00,
2013-11-09 01:58:00,46.2,35.5,29.58,ESE,112,9.4,9.4,66,0.00,,,0.00,WUHU21623XXSP,2013-11-09 07:58:00,
2013-11-09 02:03:00,46.2,35.9,29.58,ESE,112,6.7,9.4,67,0.00,,,0.00,WUHU21623XXSP,2013-11-09 08:03:00,
2013-11-09 02:08:00,46.0,35.7,29.58,ESE,112,9.8,9.8,67,0.00,,,0.00,WUHU21623XXSP,2013-11-09 08:08:00,
2013-11-09 02:13:00,45.7,35.3,29.57,SE,135,14.5,14.5,67,0.00,,,0.00,WUHU21623XXSP,2013-11-09 08:13:00,
2013-11-09 02:18:00,45.5,35.3,29.57,ESE,112,8.7,14.5,68,0.00,,,0.00,WUHU21623XXSP,2013-11-09 08:18:00,
2013-11-09 02:23:00,45.3,35.4,29.57,SE,135,6.0,8.7,68,0.00,,,0.00,WUHU21623XXSP,2013-11-09 08:23:00,
2013-11-09 02:29:00,45.1,35.2,29.56,ESE,112,8.1,8.1,68,0.00,,,0.00,WUHU21623XXSP,2013-11-09 08:29:00,
2013-11-09 02:34:00,45.0,35.4,29.56,ESE,112,8.7,8.7,69,0.00,,,0.00,WUHU21623XXSP,2013-11-09 08:34:00,
2013-11-09 02:39:00,44.8,35.2,29.56,ESE,112,3.1,8.7,69,0.00,,,0.00,WUHU21623XXSP,2013-11-09 08:39:00,
2013-11-09 02:44:00,44.6,35.2,29.56,SSW,202,0.0,5.1,70,0.00,,,0.00,WUHU21623XXSP,2013-11-09 08:44:00,
2013-11-09 02:49:00,44.4,35.3,29.56,ESE,112,10.7,10.7,70,0.00,,,0.00,WUHU21623XXSP,2013-11-09 08:49:00,
2013-11-09 02:54:00,44.4,35.3,29.56,ESE,112,3.1,10.7,70,0.00,,,0.00,WUHU21623XXSP,2013-11-09 08:54:00,
2013-11-09 02:59:00,44.2,35.1,29.55,West,270,5.1,5.4,70,0.00,,,0.00,WUHU21623XXSP,2013-11-09 08:59:00,
2013-11-09 03:04:00,44.2,35.4,29.55,ESE,112,9.6,9.6,71,0.00,,,0.00,WUHU21623XXSP,2013-11-09 09:04:00,
2013-11-09 03:09:00,44.2,35.4,29.55,ESE,112,2.0,9.6,71,0.00,,,0.00,WUHU21623XXSP,2013-11-09 09:09:00,
2013-11-09 03:14:00,44.1,35.3,29.55,SSE,157,1.6,2.2,71,0.00,,,0.00,WUHU21623XXSP,2013-11-09 09:14:00,
2013-11-09 03:19:00,44.1,35.3,29.55,WSW,247,0.0,3.1,71,0.00,,,0.00,WUHU21623XXSP,2013-11-09 09:19:00,
2013-11-09 03:24:00,44.1,35.3,29.55,ESE,112,4.3,5.1,71,0.00,,,0.00,WUHU21623XXSP,2013-11-09 09:24:00,
2013-11-09 03:29:00,43.9,35.4,29.55,SE,135,4.5,5.1,72,0.00,,,0.00,WUHU21623XXSP,2013-11-09 09:29:00,
2013-11-09 03:34:00,43.9,35.4,29.55,SSW,202,0.0,8.7,72,0.00,,,0.00,WUHU21623XXSP,2013-11-09 09:34:00,
2013-11-09 03:39:00,43.9,35.4,29.55,WSW,247,7.8,8.7,72,0.00,,,0.00,WUHU21623XXSP,2013-11-09 09:39:00,
2013-11-09 03:44:00,44.1,35.4,29.55,NW,315,2.2,7.8,72,0.00,,,0.00,WUHU21623XXSP,2013-11-09 09:44:00,
2013-11-09 03:49:00,44.2,35.8,29.55,West,270,3.4,4.7,72,0.00,,,0.00,WUHU21623XXSP,2013-11-09 09:49:00,
2013-11-09 03:54:00,44.4,35.9,29.55,SSW,202,3.6,3.8,72,0.00,,,0.00,WUHU21623XXSP,2013-11-09 09:54:00,
2013-11-09 03:59:00,44.4,35.9,29.55,East,90,8.7,8.7,72,0.00,,,0.00,WUHU21623XXSP,2013-11-09 09:59:00,
2013-11-09 04:04:00,44.4,35.9,29.55,East,90,5.1,8.7,72,0.00,,,0.00,WUHU21623XXSP,2013-11-09 10:04:00,
2013-11-09 04:09:00,45.0,36.3,29.55,WSW,247,8.1,9.6,72,0.00,,,0.00,WUHU21623XXSP,2013-11-09 10:09:00,
2013-11-09 04:14:00,45.1,36.6,29.55,North,0,1.8,9.6,72,0.00,,,0.00,WUHU21623XXSP,2013-11-09 10:14:00,
2013-11-09 04:19:00,45.3,36.8,29.55,WSW,247,6.9,6.9,72,0.00,,,0.00,WUHU21623XXSP,2013-11-09 10:19:00,
2013-11-09 04:24:00,46.0,37.2,29.55,South,180,0.0,6.9,71,0.00,,,0.00,WUHU21623XXSP,2013-11-09 10:24:00,
2013-11-09 04:29:00,46.2,37.4,29.55,WNW,292,9.6,9.6,71,0.00,,,0.00,WUHU21623XXSP,2013-11-09 10:29:00,
2013-11-09 04:34:00,46.2,37.4,29.55,ESE,112,1.8,9.6,71,0.00,,,0.00,WUHU21623XXSP,2013-11-09 10:34:00,
2013-11-09 04:39:00,46.6,37.4,29.54,NW,315,4.7,7.4,70,0.00,,,0.00,WUHU21623XXSP,2013-11-09 10:39:00,
2013-11-09 04:44:00,46.6,37.4,29.55,West,270,5.4,7.4,70,0.00,,,0.00,WUHU21623XXSP,2013-11-09 10:44:00,
2013-11-09 04:49:00,46.4,37.2,29.55,NNE,22,6.9,6.9,70,0.00,,,0.00,WUHU21623XXSP,2013-11-09 10:49:00,
2013-11-09 04:54:00,46.2,37.0,29.54,NNE,22,3.6,6.9,70,0.00,,,0.00,WUHU21623XXSP,2013-11-09 10:54:00,
2013-11-09 04:59:00,46.2,37.0,29.54,WSW,247,4.7,6.9,70,0.00,,,0.00,WUHU21623XXSP,2013-11-09 10:59:00,
2013-11-09 05:04:00,46.0,37.2,29.54,NE,45,3.6,4.7,71,0.00,,,0.00,WUHU21623XXSP,2013-11-09 11:04:00,
2013-11-09 05:09:00,46.0,37.2,29.54,West,270,0.0,4.7,71,0.00,,,0.00,WUHU21623XXSP,2013-11-09 11:09:00,
2013-11-09 05:14:00,46.0,37.2,29.54,North,0,0.7,3.6,71,0.00,,,0.00,WUHU21623XXSP,2013-11-09 11:14:00,
2013-11-09 05:19:00,45.7,36.8,29.54,SW,225,10.3,10.3,71,0.00,,,0.00,WUHU21623XXSP,2013-11-09 11:19:00,
2013-11-09 05:24:00,45.7,36.8,29.54,SW,225,8.5,10.3,71,0.00,,,0.00,WUHU21623XXSP,2013-11-09 11:24:00,
2013-11-09 05:29:00,45.5,36.7,29.54,WNW,292,1.8,8.5,71,0.00,,,0.00,WUHU21623XXSP,2013-11-09 11:29:00,
2013-11-09 05:35:00,45.5,37.0,29.54,SW,225,7.4,8.5,72,0.00,,,0.00,WUHU21623XXSP,2013-11-09 11:35:00,
2013-11-09 05:40:00,45.3,36.8,29.54,NW,315,3.1,7.4,72,0.00,,,0.00,WUHU21623XXSP,2013-11-09 11:40:00,
2013-11-09 05:45:00,45.3,36.8,29.54,SSE,157,1.1,5.4,72,0.00,,,0.00,WUHU21623XXSP,2013-11-09 11:45:00,
2013-11-09 05:50:00,45.1,37.0,29.54,SW,225,0.7,4.9,73,0.00,,,0.00,WUHU21623XXSP,2013-11-09 11:50:00,
2013-11-09 05:55:00,45.1,37.0,29.55,West,270,2.7,4.9,73,0.00,,,0.00,WUHU21623XXSP,2013-11-09 11:55:00,
2013-11-09 06:00:00,45.0,36.8,29.55,NW,315,2.0,2.9,73,0.00,,,0.00,WUHU21623XXSP,2013-11-09 12:00:00,
2013-11-09 06:05:00,44.8,36.6,29.55,WSW,247,6.9,6.9,73,0.00,,,0.00,WUHU21623XXSP,2013-11-09 12:05:00,
2013-11-09 06:10:00,44.6,36.6,29.55,SSW,202,0.0,6.9,74,0.00,,,0.00,WUHU21623XXSP,2013-11-09 12:10:00,
2013-11-09 06:15:00,44.4,36.6,29.55,WSW,247,12.3,12.3,74,0.00,,,0.00,WUHU21623XXSP,2013-11-09 12:15:00,
2013-11-09 06:20:00,44.4,36.6,29.55,SE,135,0.7,12.3,74,0.00,,,0.00,WUHU21623XXSP,2013-11-09 12:20:00,
2013-11-09 06:25:00,44.4,37.0,29.55,West,270,3.4,7.8,75,0.00,,,0.00,WUHU21623XXSP,2013-11-09 12:25:00,
2013-11-09 06:30:00,44.4,37.0,29.56,West,270,10.5,10.5,75,0.00,,,0.00,WUHU21623XXSP,2013-11-09 12:30:00,
2013-11-09 06:35:00,44.2,36.8,29.56,West,270,4.5,10.5,75,0.00,,,0.00,WUHU21623XXSP,2013-11-09 12:35:00,
2013-11-09 06:40:00,44.1,36.6,29.56,WNW,292,4.5,4.5,75,0.00,,,0.00,WUHU21623XXSP,2013-11-09 12:40:00,
2013-11-09 06:45:00,43.9,36.8,29.56,WSW,247,0.0,4.5,76,0.00,,,0.00,WUHU21623XXSP,2013-11-09 12:45:00,
2013-11-09 06:50:00,43.9,36.8,29.56,WSW,247,5.4,5.4,76,0.00,,,0.00,WUHU21623XXSP,2013-11-09 12:50:00,
2013-11-09 06:55:00,43.9,36.8,29.56,SSW,202,3.6,5.4,76,0.00,,,0.00,WUHU21623XXSP,2013-11-09 12:55:00,
2013-11-09 07:00:00,43.9,36.8,29.56,West,270,2.0,3.6,76,0.00,,,0.00,WUHU21623XXSP,2013-11-09 13:00:00,
2013-11-09 07:05:00,44.2,37.5,29.56,NNW,337,0.0,4.0,77,0.00,,,0.00,WUHU21623XXSP,2013-11-09 13:05:00,
2013-11-09 07:10:00,44.4,37.6,29.56,NW,315,3.8,4.0,77,0.00,,,0.00,WUHU21623XXSP,2013-11-09 13:10:00,
2013-11-09 07:15:00,44.4,37.6,29.56,West,270,3.6,8.1,77,0.00,,,0.00,WUHU21623XXSP,2013-11-09 13:15:00,
2013-11-09 07:20:00,44.4,37.6,29.56,SW,225,8.3,8.3,77,0.00,,,0.00,WUHU21623XXSP,2013-11-09 13:20:00,
2013-11-09 07:25:00,44.6,37.6,29.56,South,180,7.4,8.3,77,0.00,,,0.00,WUHU21623XXSP,2013-11-09 13:25:00,
2013-11-09 07:30:00,44.8,38.0,29.56,West,270,4.3,11.2,77,0.00,,,0.00,WUHU21623XXSP,2013-11-09 13:30:00,
2013-11-09 07:35:00,45.0,38.0,29.56,West,270,3.6,11.2,77,0.00,,,0.00,WUHU21623XXSP,2013-11-09 13:35:00,
2013-11-09 07:40:00,45.1,38.4,29.56,NW,315,6.5,6.5,77,0.00,,,0.00,WUHU21623XXSP,2013-11-09 13:40:00,
2013-11-09 07:45:00,45.1,38.4,29.56,West,270,4.7,6.9,77,0.00,,,0.00,WUHU21623XXSP,2013-11-09 13:45:00,
2013-11-09 07:51:00,45.3,38.5,29.56,West,270,6.3,12.1,77,0.00,,,0.00,WUHU21623XXSP,2013-11-09 13:51:00,
2013-11-09 07:56:00,45.3,38.5,29.56,SW,225,7.2,12.1,77,0.00,,,0.00,WUHU21623XXSP,2013-11-09 13:56:00,
2013-11-09 08:01:00,45.3,38.5,29.56,SSW,202,10.5,11.2,77,0.00,,,0.00,WUHU21623XXSP,2013-11-09 14:01:00,
2013-11-09 08:06:00,45.5,39.1,29.56,WSW,247,8.7,11.2,78,0.00,,,0.00,WUHU21623XXSP,2013-11-09 14:06:00,
2013-11-09 08:11:00,45.5,39.1,29.56,West,270,5.4,9.4,78,0.00,,,0.00,WUHU21623XXSP,2013-11-09 14:11:00,
2013-11-09 08:16:00,45.7,39.2,29.56,SSE,157,1.6,9.4,78,0.00,,,0.00,WUHU21623XXSP,2013-11-09 14:16:00,
2013-11-09 08:21:00,45.7,39.2,29.56,WNW,292,2.0,6.0,78,0.00,,,0.00,WUHU21623XXSP,2013-11-09 14:21:00,
2013-11-09 08:26:00,46.0,39.6,29.56,NW,315,4.5,6.0,78,0.00,,,0.00,WUHU21623XXSP,2013-11-09 14:26:00,
2013-11-09 08:31:00,46.2,39.8,29.56,WSW,247,5.8,5.8,78,0.00,,,0.00,WUHU21623XXSP,2013-11-09 14:31:00,
2013-11-09 08:36:00,46.2,39.8,29.57,NW,315,6.3,6.3,78,0.00,,,0.00,WUHU21623XXSP,2013-11-09 14:36:00,
2013-11-09 08:41:00,46.6,39.8,29.57,WNW,292,5.6,16.6,77,0.00,,,0.00,WUHU21623XXSP,2013-11-09 14:41:00,
2013-11-09 08:46:00,46.6,39.8,29.57,WNW,292,8.5,16.6,77,0.00,,,0.00,WUHU21623XXSP,2013-11-09 14:46:00,
2013-11-09 08:51:00,46.6,39.8,29.57,WSW,247,0.0,8.5,77,0.00,,,0.00,WUHU21623XXSP,2013-11-09 14:51:00,
2013-11-09 08:56:00,46.8,39.9,29.57,WSW,247,0.0,5.4,77,0.00,,,0.00,WUHU21623XXSP,2013-11-09 14:56:00,
2013-11-09 09:01:00,46.8,39.9,29.57,SW,225,12.5,12.5,77,0.00,,,0.00,WUHU21623XXSP,2013-11-09 15:01:00,
2013-11-09 09:06:00,46.8,39.9,29.57,SSW,202,6.7,12.5,77,0.00,,,0.00,WUHU21623XXSP,2013-11-09 15:06:00,
2013-11-09 09:11:00,46.9,39.9,29.57,WNW,292,8.3,9.8,76,0.00,,,0.00,WUHU21623XXSP,2013-11-09 15:11:00,
2013-11-09 09:16:00,47.1,39.9,29.58,SW,225,4.9,8.3,76,0.00,,,0.00,WUHU21623XXSP,2013-11-09 15:16:00,
2013-11-09 09:21:00,47.3,40.1,29.57,NW,315,9.6,9.6,76,0.00,,,0.00,WUHU21623XXSP,2013-11-09 15:21:00,
2013-11-09 09:26:00,47.5,39.9,29.57,South,180,3.8,9.6,75,0.00,,,0.00,WUHU21623XXSP,2013-11-09 15:26:00,
2013-11-09 09:58:00,48.4,39.9,29.59,WNW,293,6.5,6.5,72,0.00,,,0.00,WUHU21623XXSP,2013-11-09 15:58:00,
2013-11-09 10:58:00,49.1,39.8,29.60,WNW,293,2.2,2.2,70,0.00,,,0.00,WUHU21623XXSP,2013-11-09 16:58:00,
2013-11-09 11:58:00,50.4,39.6,29.59,SW,225,0.0,0.0,66,0.00,,,0.00,WUHU21623XXSP,2013-11-09 17:58:00,
2013-11-09 12:58:00,52.5,40.4,29.59,West,270,15.2,15.2,63,0.00,,,0.00,WUHU21623XXSP,2013-11-09 18:58:00,
2013-11-09 13:58:00,50.7,39.1,29.62,NW,315,1.1,1.1,64,0.00,,,0.00,WUHU21623XXSP,2013-11-09 19:58:00,
2013-11-09 14:58:00,49.3,39.3,29.65,WNW,293,7.2,7.2,68,0.00,,,0.00,WUHU21623XXSP,2013-11-09 20:58:00,
2013-11-09 15:58:00,48.6,38.2,29.67,WNW,293,4.5,4.5,67,0.00,,,0.00,WUHU21623XXSP,2013-11-09 21:58:00,
2013-11-09 16:58:00,47.1,37.5,29.69,WNW,293,5.8,5.8,69,0.00,,,0.00,WUHU21623XXSP,2013-11-09 22:58:00,
2013-11-09 17:58:00,46.2,36.3,29.71,NNW,338,1.1,1.1,68,0.00,,,0.00,WUHU21623XXSP,2013-11-09 23:58:00,
2013-11-09 18:58:00,45.1,34.1,29.74,WSW,248,7.8,7.8,65,0.00,,,0.00,WUHU21623XXSP,2013-11-10 00:58:00,
2013-11-09 19:58:00,43.0,29.3,29.77,WSW,248,2.5,2.5,58,0.00,,,0.00,WUHU21623XXSP,2013-11-10 01:58:00,
2013-11-09 20:55:00,41.9,29.4,29.77,SW,225,0.0,0.0,61,0.00,,,0.00,WUHU21623XXSP,2013-11-10 02:55:00,
2013-11-09 21:00:00,41.9,29.4,29.77,WNW,292,0.0,0.0,61,0.00,,,0.00,WUHU21623XXSP,2013-11-10 03:00:00,
2013-11-09 21:05:00,41.9,29.8,29.77,West,270,6.5,6.5,62,0.00,,,0.00,WUHU21623XXSP,2013-11-10 03:05:00,
2013-11-09 21:10:00,41.7,29.6,29.77,West,270,7.2,7.2,62,0.00,,,0.00,WUHU21623XXSP,2013-11-10 03:10:00,
2013-11-09 21:15:00,41.7,30.0,29.77,WNW,292,0.0,7.2,63,0.00,,,0.00,WUHU21623XXSP,2013-11-10 03:15:00,
2013-11-09 21:20:00,41.9,30.2,29.77,WNW,292,6.9,6.9,63,0.00,,,0.00,WUHU21623XXSP,2013-11-10 03:20:00,
2013-11-09 21:25:00,41.9,30.6,29.77,WNW,292,3.6,6.9,64,0.00,,,0.00,WUHU21623XXSP,2013-11-10 03:25:00,
2013-11-09 21:30:00,41.7,30.4,29.77,SW,225,0.0,3.6,64,0.00,,,0.00,WUHU21623XXSP,2013-11-10 03:30:00,
2013-11-09 21:35:00,41.9,31.0,29.77,North,0,0.0,6.0,65,0.00,,,0.00,WUHU21623XXSP,2013-11-10 03:35:00,
2013-11-09 21:40:00,41.9,31.0,29.78,WNW,292,4.5,7.6,65,0.00,,,0.00,WUHU21623XXSP,2013-11-10 03:40:00,
2013-11-09 21:45:00,41.9,30.2,29.78,WNW,292,8.5,14.3,63,0.00,,,0.00,WUHU21623XXSP,2013-11-10 03:45:00,
2013-11-09 21:50:00,41.9,29.8,29.78,SSW,202,5.1,14.3,62,0.00,,,0.00,WUHU21623XXSP,2013-11-10 03:50:00,
2013-11-09 21:55:00,41.7,29.2,29.79,NW,315,1.3,5.1,61,0.00,,,0.00,WUHU21623XXSP,2013-11-10 03:55:00,
2013-11-09 22:00:00,41.5,28.3,29.79,WSW,247,10.5,10.5,59,0.00,,,0.00,WUHU21623XXSP,2013-11-10 04:00:00,
2013-11-09 22:05:00,41.5,27.4,29.79,West,270,8.3,19.7,58,0.00,,,0.00,WUHU21623XXSP,2013-11-10 04:05:00,
2013-11-09 22:10:00,41.4,27.2,29.80,SSW,202,3.6,19.7,57,0.00,,,0.00,WUHU21623XXSP,2013-11-10 04:10:00,
2013-11-09 22:15:00,41.2,26.6,29.80,WSW,247,4.5,10.3,56,0.00,,,0.00,WUHU21623XXSP,2013-11-10 04:15:00,
2013-11-09 22:20:00,41.2,26.6,29.80,WSW,247,2.5,23.3,56,0.00,,,0.00,WUHU21623XXSP,2013-11-10 04:20:00,
2013-11-09 22:25:00,40.8,26.2,29.80,West,270,9.6,23.3,56,0.00,,,0.00,WUHU21623XXSP,2013-11-10 04:25:00,
2013-11-09 22:30:00,40.8,26.2,29.80,SW,225,2.9,11.6,56,0.00,,,0.00,WUHU21623XXSP,2013-11-10 04:30:00,
2013-11-09 22:36:00,40.6,26.1,29.80,SSW,202,3.6,15.7,56,0.00,,,0.00,WUHU21623XXSP,2013-11-10 04:36:00,
2013-11-09 22:41:00,40.6,26.1,29.80,WSW,247,18.8,18.8,56,0.00,,,0.00,WUHU21623XXSP,2013-11-10 04:41:00,
2013-11-09 22:46:00,40.6,26.1,29.81,WSW,247,2.5,19.2,56,0.00,,,0.00,WUHU21623XXSP,2013-11-10 04:46:00,
2013-11-09 22:51:00,40.6,26.5,29.81,SW,225,0.0,19.2,57,0.00,,,0.00,WUHU21623XXSP,2013-11-10 04:51:00,
2013-11-09 22:56:00,40.5,25.9,29.81,West,270,12.5,12.5,56,0.00,,,0.00,WUHU21623XXSP,2013-11-10 04:56:00,
2013-11-09 23:01:00,40.5,26.3,29.81,West,270,1.1,12.5,57,0.00,,,0.00,WUHU21623XXSP,2013-11-10 05:01:00,
2013-11-09 23:02:00,40.3,26.2,29.81,SW,225,1.6,12.5,57,0.00,,,0.00,WUHU21623XXSP,2013-11-10 05:02:00,
2013-11-09 23:07:00,40.3,25.7,29.82,West,270,11.2,11.2,56,0.00,,,0.00,WUHU21623XXSP,2013-11-10 05:07:00,
2013-11-09 23:12:00,40.3,26.2,29.82,West,270,3.8,11.2,57,0.00,,,0.00,WUHU21623XXSP,2013-11-10 05:12:00,
2013-11-09 23:17:00,40.3,26.2,29.82,WSW,247,4.5,6.5,57,0.00,,,0.00,WUHU21623XXSP,2013-11-10 05:17:00,
2013-11-09 23:20:00,40.1,26.0,29.82,WNW,292,12.3,12.3,57,0.00,,,0.00,WUHU21623XXSP,2013-11-10 05:20:00,
2013-11-09 23:58:00,39.7,26.6,29.81,West,270,8.3,8.3,59,0.00,,,0.00,WUHU21623XXSP,2013-11-10 05:58:00,